Weather History for Tyler, TX

Change the Weather History Date:

Saturday, November 3, 2012

  Actual Average Record
Temperature  
Mean Temperature 72 °F 60 °F  
Max Temperature 82 °F 71 °F 86 °F (1955)
Min Temperature 61 °F 50 °F 23 °F (1966)
Degree Days  
Heating Degree Days 0 6  
Month to date heating degree days 0 17  
Since 1 July heating degree days 110 94  
Cooling Degree Days 7 1  
Month to date cooling degree days 15 5  
Year to date cooling degree days 2987 2398  
Growing Degree Days 21 (Base 50)    
Moisture  
Dew Point 62 °F    
Average Humidity 76    
Maximum Humidity 100    
Minimum Humidity 51    
Precipitation  
Precipitation 0.00 in 0.16 in 1.90 in (1946)
Month to date precipitation 0.00 0.45  
Year to date precipitation 31.55 37.90  
Snow  
Snow 0.00 in - - ()
Month to date snowfall 0.0  
Since 1 July snowfall 0.0  
Since 1 September snowfall 0.0  
Snow Depth 0.00 in    
Sea Level Pressure  
Sea Level Pressure 30.06 in    
Wind  
Wind Speed 7 mph (South)    
Max Wind Speed 22 mph    
Max Gust Speed 28 mph    
Visibility 7 miles    
Events Fog , Thunderstorm    
T = Trace of Precipitation, MM = Missing Value Source: NWS Daily Summary

Daily Weather History Graph

Daily Weather History Graph

Search for Another Location

Airport:

Trip Planner

Search our weather history database for the weather conditions in past years. The results will help you decide how hot, cold, wet, or windy it might be!

Date:

Astronomy

Nov. 03, 2012 Rise Set
Actual Time 7:40 AM CDT 6:29 PM CDT
Civil Twilight 7:15 AM CDT 6:54 PM CDT
Nautical Twilight 6:46 AM CDT 7:23 PM CDT
Astronomical Twilight 6:17 AM CDT 7:52 PM CDT
Moon 10:16 PM CDT (11/3) 11:40 AM CDT (11/3)
Length of Visible Light 11h 39m
Length of Day
10h 48m
Waning Gibbous, 80% of the Moon is Illuminated
Nov 3
Waning Gibbous
Nov 6
Last Quarter
Nov 13
New
Nov 20
First Quarter
Nov 28
Full

Hourly Weather History & Observations

Time (CDT) Temp. Heat Index Dew Point Humidity Pressure Visibility Wind Dir Wind Speed Gust Speed Precip Events Conditions
12:53 AM 68.0 °F - 61.0 °F 78% 29.99 in 10.0 mi South 11.5 mph - N/A   Clear
1:53 AM 66.0 °F - 61.0 °F 84% 29.99 in 10.0 mi South 8.1 mph - N/A   Clear
2:53 AM 64.0 °F - 61.0 °F 90% 29.99 in 10.0 mi South 6.9 mph - N/A   Clear
3:53 AM 64.0 °F - 61.0 °F 90% 29.99 in 10.0 mi South 6.9 mph - N/A   Clear
4:53 AM 63.0 °F - 61.0 °F 93% 30.01 in 8.0 mi South 5.8 mph - N/A   Clear
5:53 AM 62.1 °F - 60.1 °F 93% 30.04 in 5.0 mi South 5.8 mph - N/A   Clear
6:37 AM 60.8 °F - 60.8 °F 100% 30.06 in 2.5 mi South 5.8 mph - N/A   Clear
6:53 AM 61.0 °F - 60.1 °F 97% 30.05 in 2.5 mi SSE 4.6 mph - N/A   Clear
7:00 AM 62.6 °F - 60.8 °F 94% 30.06 in 2.5 mi SSE 4.6 mph - N/A   Scattered Clouds
7:09 AM 62.6 °F - 60.8 °F 94% 30.07 in 2.5 mi SSE 5.8 mph - N/A   Mostly Cloudy
7:19 AM 62.6 °F - 60.8 °F 94% 30.07 in 0.2 mi SSE 3.5 mph - N/A Fog Fog
7:53 AM 63.0 °F - 62.1 °F 97% 30.08 in 0.2 mi South 3.5 mph - N/A Fog Fog
8:11 AM 62.6 °F - 62.6 °F 100% 30.10 in 0.2 mi South 3.5 mph - N/A Fog Fog
8:49 AM 64.4 °F - 64.4 °F 100% 30.11 in 0.2 mi South 5.8 mph - N/A Fog Fog
8:53 AM 64.0 °F - 64.0 °F 100% 30.10 in 0.2 mi South 5.8 mph - N/A Fog Fog
9:32 AM 66.2 °F - 64.4 °F 94% 30.12 in 0.2 mi South 8.1 mph - N/A Fog Fog
9:51 AM 66.2 °F - 64.4 °F 94% 30.12 in 0.5 mi South 5.8 mph - N/A Fog Fog
9:53 AM 66.9 °F - 64.9 °F 93% 30.10 in 0.5 mi South 8.1 mph - N/A Fog Fog
10:04 AM 66.2 °F - 66.2 °F 100% 30.11 in 1.8 mi South 8.1 mph - N/A   Overcast
10:09 AM 66.2 °F - 66.2 °F 100% 30.11 in 3.0 mi SSW 6.9 mph - N/A   Overcast
10:36 AM 69.8 °F - 66.2 °F 88% 30.12 in 10.0 mi SW 6.9 mph - N/A   Mostly Cloudy
10:53 AM 70.0 °F - 66.0 °F 87% 30.11 in 10.0 mi SSW 12.7 mph - N/A   Overcast
11:41 AM 73.4 °F - 66.2 °F 78% 30.11 in 10.0 mi SSW 8.1 mph - N/A   Scattered Clouds
11:53 AM 75.0 °F - 66.9 °F 76% 30.09 in 10.0 mi SSW 8.1 mph - N/A   Partly Cloudy
12:53 PM 79.0 °F - 66.0 °F 64% 30.06 in 10.0 mi SSW 9.2 mph - N/A   Partly Cloudy
1:53 PM 80.1 °F 81.9 °F 64.9 °F 60% 30.03 in 10.0 mi SSW 8.1 mph - N/A   Scattered Clouds
2:53 PM 79.0 °F - 64.0 °F 60% 30.01 in 10.0 mi WSW 5.8 mph - N/A   Scattered Clouds
3:53 PM 82.0 °F 83.0 °F 62.1 °F 51% 30.00 in 10.0 mi West 9.2 mph - N/A   Scattered Clouds
4:53 PM 79.0 °F - 63.0 °F 58% 30.00 in 10.0 mi SW 4.6 mph - N/A   Clear
5:53 PM 78.1 °F - 63.0 °F 60% 30.01 in 10.0 mi SSW 5.8 mph - N/A   Clear
6:53 PM 73.0 °F - 64.0 °F 73% 30.04 in 10.0 mi South 9.2 mph - N/A   Clear
7:53 PM 70.0 °F - 63.0 °F 78% 30.04 in 10.0 mi South 8.1 mph - N/A   Clear
8:53 PM 68.0 °F - 57.9 °F 70% 30.06 in 10.0 mi South 13.8 mph - N/A   Scattered Clouds
9:53 PM 66.0 °F - 57.9 °F 75% 30.07 in 10.0 mi SSW 5.8 mph - N/A   Clear
10:53 PM 64.9 °F - 57.9 °F 78% 30.11 in 10.0 mi NNW 8.1 mph - N/A   Mostly Cloudy
11:13 PM 66.2 °F - 57.2 °F 73% 30.12 in 10.0 mi NNW 5.8 mph - N/A Thunderstorm Scattered Clouds
11:40 PM 64.4 °F - 57.2 °F 77% 30.12 in 10.0 mi Calm Calm - N/A   Clear
11:53 PM 64.9 °F - 57.9 °F 78% 30.09 in 10.0 mi SE 3.5 mph - N/A   Partly Cloudy